Regional Weather Roundup
Issued by NWS

Home | Current Version | Previous Version | Text Only | Print | Product List | Glossary Off
Versions: 1 2 3 4 5 6 7 8 9 10 11 12 13 14 15 16 17 18 19 20 21 22 23 24 25 26 27

000
ASUS45 KBOU 200907
RWRCO

WEATHER ROUNDUP FOR COLORADO
NATIONAL WEATHER SERVICE DENVER/BOULDER CO
200 AM MST MON FEB 20 2017

NOTE: "FAIR" INDICATES FEW OR NO CLOUDS BELOW 12000 FEET WITH NO
SIGNIFICANT WEATHER AND/OR OBSTRUCTIONS TO VISIBILITY.

COZ001>005-013-030-031-201000-
...NORTHWEST COLORADO...

CITY           SKY/WX    TMP DP  RH WIND       PRES   REMARKS
CRAIG          CLOUDY    28  26  92 W3        30.01S
HAYDEN         MOCLDY    27  23  86 CALM      30.01R VSB 1/2
MEEKER         CLOUDY    32  31  96 SE3       30.02S
MOUNT WERNER   NOT AVBL
STEAMBOAT SPGS FAIR      29  28  97 CALM      30.00R
WALDEN         NOT AVBL
$$

COZ006>008-011-201000-
...WEST CENTRAL VALLEYS...

CITY           SKY/WX    TMP DP  RH WIND       PRES   REMARKS
GRAND JUNCTION CLOUDY    39  39 100 CALM      30.02S
MONTROSE       CLOUDY    34  33  96 SE5       30.07R WCI  30
EAGLE          MOCLDY    30  29  96 S3        30.04R
RIFLE          MOCLDY    36  34  92 E5        30.02R
DELTA          CLOUDY    40  38  95 NE3       30.05R
NUCLA          CLOUDY    36  34  93 E6        30.09R
$$

COZ017>023-064>068-201000-
...SOUTHWEST COLORADO...

CITY           SKY/WX    TMP DP  RH WIND       PRES   REMARKS
DURANGO        FAIR      30  27  88 N5        30.01R WCI  25
CORTEZ         CLOUDY    37  36  96 CALM      30.05R
PAGOSA SPRINGS CLOUDY    31  31 100 CALM      30.02R
TELLURIDE      NOT AVBL
WOLF CREEK PAS FAIR      14  14 100 NW9G17    30.07R WCI   2
$$

COZ009-010-012-014-032>034-037-058>063-201000-
...CENTRAL COLORADO...

CITY           SKY/WX    TMP DP  RH WIND       PRES   REMARKS
ASPEN          CLOUDY    31  29  92 N6        30.01R WCI  25
BUENA VISTA    FAIR      33  21  60 NW17G24   29.93R WCI  22
COPPER MTN     CLOUDY    19  14  79 MISG      29.98F
BERTHOUD PASS  HVY SNOW  10   1  67 N30       29.88R VSB 1/4 WCI -12
COTTONWOOD PAS FAIR      32  16  51 W20G31    29.93R WCI  20
GUNNISON       MOCLDY    32  26  78 W14       30.00R WCI  22
KREMMLING      FAIR      32  27  80 CALM      30.00S
LEADVILLE      CLOUDY    21  16  81 N14       29.96R WCI   8
MONARCH PASS   FOG       19  16  86 MISG      30.02F VSB 1/2
SALIDA         FAIR      36  25  64 NW9       29.98S
SUNLIGHT       NOT AVBL
WILKERSON PASS FAIR      19   9  63 NW18G31   29.91S WCI   4
$$

COZ069>075-201000-
...SAN LUIS VALLEY/SANGRE DE CRISTO MOUNTAINS...

CITY           SKY/WX    TMP DP  RH WIND       PRES   REMARKS
ALAMOSA        MOCLDY    28  25  88 S3        29.94R
LA VETA PASS   FAIR      23  18  80 NE24G38   29.90R WCI   7
SAGUACHE       CLOUDY    36  23  60 NW18G25   29.94R
$$

COZ035-036-038>040-201000-
...NORTHERN COLORADO FRONT RANGE...

CITY           SKY/WX    TMP DP  RH WIND       PRES   REMARKS
DENVER INTL AP FAIR      40  22  48 N8        29.80R
DMNS CITY PARK   N/A     47  12  24 NW3G23    29.80R
AURORA         PTCLDY    39  32  74 S6        29.81R
FRONT RANGE AP FAIR      41  23  48 NW9       29.82R
ERIE MUNI ARPT FAIR      46  15  29 NW9       29.79R
BOULDER MUN AP FAIR      48  12  23 W32G41    29.78R
CENTENNIAL     FAIR      41  18  39 NW7       29.81R
BROOMFIELD     FAIR      41  18  38 N6        29.80R
FORT COLLINS   FAIR      46  13  26 N25G38    29.78R
LONGMONT       FAIR      45  35  67 SE7       29.80R
$$

COZ041-046-047-076>085-087-088-201000-
...PIKES PEAK/PALMER DIVIDE AND SOUTHERN FOOTHILLS...

CITY           SKY/WX    TMP DP  RH WIND       PRES   REMARKS
COLO. SPRINGS  MOCLDY    38  24  57 NE10      29.82R
A. F. ACADEMY  FAIR      37  21  53 N8        29.81R
SCHRIEVER AFB  FAIR      40  29  65 N10       29.82R
ELLICOTT       FAIR     N/A N/A N/A N20G28    29.79R
FALCON         FAIR      34  29  81 N5        29.84R WCI  30
FORT CARSON    FAIR      42  20  41 N7        29.80R
LIMON          MOCLDY    40  30  67 NW9       29.81R
MONUMENT HILL  FAIR      30  30 100 N6        29.85R WCI  24
TRINIDAD       FAIR      39  18  42 W8        29.82R
$$

COZ042>045-048>051-090-091-201000-
...NORTHEAST COLORADO...

CITY           SKY/WX    TMP DP  RH WIND       PRES   REMARKS
GREELEY ARPT   FAIR      44  20  38 NW18      29.81R
AKRON          CLOUDY    47  23  38 NW26G33   29.79R
BURLINGTON     FAIR      49  34  56 NW25G37   29.74R
WRAY           NOT AVBL
STERLING       CLOUDY    50  27  40 NW20      29.75R
HOLYOKE        FAIR      48  34  57 NW13      29.72R
FORT MORGAN    MOCLDY    45  25  44 NW17      29.79R
$$

COZ086-089-092>099-201000-
...SOUTHEAST COLORADO...

CITY           SKY/WX    TMP DP  RH WIND       PRES   REMARKS
PUEBLO         MOCLDY    52  21  29 NW16      29.79R
LA JUNTA       MOCLDY    45  27  49 W10       29.77R
LAMAR          FAIR      40  24  53 W8        29.72R
SPRINGFIELD      N/A     39  22  50 W9        29.73R
$$




USA.gov is the U.S. government's official web portal to all federal, state and local government web resources and services.